GW2021 Weather Reports


time (UTC)temp
F
wind
direction
speed
knots
gust
knots
rain 1hr
in
rain 24hr
in
rain mn
in
humidity
%
barometer
mb
20260504214614 69 157 0.0 0.0 0.00 0.00 0.00 43 1008.9
20260504213615 69 157 0.0 0.0 0.00 0.00 0.00 43 1008.9
20260504210715 69 157 0.0 0.0 0.00 0.00 0.00 42 1008.9
20260504202015 70 157 0.0 0.0 0.00 0.00 0.00 43 1009.0
20260504201013 70 157 0.0 0.0 0.00 0.00 0.00 43 1009.2
20260504200015 70 157 0.0 0.0 0.00 0.00 0.00 43 1009.4
20260504195113 70 157 0.0 0.0 0.00 0.00 0.00 44 1009.6
20260504194213 70 157 0.0 0.0 0.00 0.00 0.00 45 1009.7
20260504193215 69 157 0.0 0.0 0.00 0.00 0.00 42 1009.8
20260504191413 70 157 0.0 0.0 0.00 0.00 0.00 43 1010.3
20260504190414 70 157 0.0 0.0 0.00 0.00 0.00 43 1010.3
20260504185413 69 157 0.0 0.0 0.00 0.00 0.00 43 1010.6
20260504183412 69 157 0.0 0.0 0.00 0.00 0.00 43 1010.9
20260504182512 69 157 0.0 0.0 0.00 0.00 0.00 44 1011.0
20260504181512 69 157 0.0 0.0 0.00 0.00 0.00 43 1011.1
20260504180513 69 157 0.0 0.0 0.00 0.00 0.00 44 1011.2
20260504175515 69 157 0.0 0.0 0.00 0.00 0.00 46 1011.2
20260504174613 69 157 0.0 0.0 0.00 0.00 0.00 46 1011.4
20260504173615 68 157 0.0 0.0 0.00 0.00 0.00 44 1011.4
20260504171712 68 157 0.0 0.0 0.00 0.00 0.00 45 1011.7
20260504170713 67 157 0.0 0.0 0.00 0.00 0.00 42 1011.8
20260504150814 65 157 0.0 0.0 0.00 0.00 0.00 43 1013.4
20260504140915 62 157 0.0 0.0 0.00 0.00 0.00 44 1013.6
20260504130112 56 157 0.0 0.0 0.00 0.00 0.00 50 1013.9
20260504120316 47 157 0.0 0.0 0.00 0.00 0.00 65 1014.0
20260504110414 41 157 0.0 0.0 0.00 0.00 0.00 71 1013.8
20260504100516 40 157 0.0 0.0 0.00 0.00 0.00 69 1013.9
20260504081913 43 157 0.0 0.0 0.00 0.00 0.00 61 1014.4
20260504080913 43 157 0.0 0.0 0.00 0.00 0.00 61 1014.5
20260504070313 44 157 0.0 0.0 0.00 0.00 0.00 61 1014.5
20260504050612 46 157 0.0 0.0 0.00 0.00 0.00 57 1014.7
20260504045615 46 157 0.0 0.0 0.00 0.00 0.00 57 1014.8
20260504043614 46 157 0.0 0.0 0.00 0.00 0.00 56 1014.8
20260504042613 47 157 0.0 0.0 0.00 0.00 0.00 54 1014.8
20260504040612 47 157 0.0 0.0 0.00 0.00 0.00 52 1015.0
20260504035624 47 157 0.0 0.0 0.00 0.00 0.00 52 1014.7
20260504034622 47 157 0.0 0.0 0.00 0.00 0.00 52 1014.7
20260504033623 47 157 0.0 0.0 0.00 0.00 0.00 53 1014.7
20260504032624 47 157 0.0 0.0 0.00 0.00 0.00 53 1014.7
20260504031623 48 157 0.0 0.0 0.00 0.00 0.00 54 1014.6
20260504030624 47 157 0.0 0.0 0.00 0.00 0.00 53 1014.5
20260504025622 47 157 0.0 0.0 0.00 0.00 0.00 55 1014.5
20260504023623 48 157 0.0 0.0 0.00 0.00 0.00 54 1014.4
20260504022624 48 157 0.0 0.0 0.00 0.00 0.00 54 1014.5
20260504021621 48 157 0.0 0.0 0.00 0.00 0.00 55 1014.4
20260504020622 48 157 0.0 0.0 0.00 0.00 0.00 54 1014.4
20260504015622 48 157 0.0 0.0 0.00 0.00 0.00 54 1014.4
20260504013723 49 157 0.0 0.0 0.00 0.00 0.00 56 1014.3
20260504012723 49 157 0.0 0.0 0.00 0.00 0.00 55 1014.3
20260504011725 50 157 0.0 0.0 0.00 0.00 0.00 53 1014.2
20260504010722 50 157 0.0 0.0 0.00 0.00 0.00 52 1014.3
20260504005722 51 157 0.0 0.0 0.00 0.00 0.00 51 1014.2
20260504003823 52 157 0.0 0.0 0.00 0.00 0.00 50 1014.1
20260504002825 53 157 0.0 0.0 0.00 0.00 0.00 49 1013.9
20260504001922 53 157 0.0 0.0 0.00 0.00 0.00 47 1013.9
20260504000922 54 157 0.0 0.0 0.00 0.00 0.00 45 1013.8
20260503235923 55 157 0.0 0.0 0.00 0.00 0.00 42 1013.8
20260503235021 55 157 0.0 0.0 0.00 0.00 0.00 40 1013.7
20260503234023 56 157 0.0 0.0 0.00 0.00 0.00 39 1013.4
20260503233022 56 157 0.0 0.0 0.00 0.00 0.00 38 1013.4
20260503232022 57 157 0.0 0.0 0.00 0.00 0.00 37 1013.2
20260503231022 57 157 0.0 0.0 0.00 0.00 0.00 37 1013.3
20260503230022 57 157 0.0 0.0 0.00 0.00 0.00 36 1013.5
20260503225023 57 157 0.0 0.0 0.00 0.00 0.00 36 1013.5
20260503224022 58 157 0.0 0.0 0.00 0.00 0.00 35 1013.3
20260503223023 58 157 0.0 0.0 0.00 0.00 0.00 35 1013.4
20260503222024 58 157 0.0 0.0 0.00 0.00 0.00 35 1013.5
20260503221022 58 157 0.0 0.0 0.00 0.00 0.00 35 1013.4
20260503220023 58 157 0.0 0.0 0.00 0.00 0.00 35 1013.4
20260503215022 58 157 0.0 0.0 0.00 0.00 0.00 35 1013.5